When you browse on this site, cookies collect data to enhance your experience and personalize the content and advertising you see.
Visit our Privacy Policy to learn more. By continuing to use the site, you agree to this use of cookies and data.
  • In United Kingdom
  • List of Countries
  • For 7 days
  • Water Temperature
  • Weather Map
  • Weather Widgets
  • user-avatar
    Login

    Hourly Weather Cugir

    Today, 22 September, Sunday

    Time Temperature Precipitation Wind Pressure Humidity
    00:00 +9°C° 0 mm 1 mps 731 mmHg 58%
    01:00 +9°C° 0 mm 1 mps 731 mmHg 58%
    02:00 +8°C° 0 mm 1 mps 731 mmHg 59%
    03:00 +8°C° 0 mm 1 mps 731 mmHg 60%
    04:00 +8°C° 0 mm 1 mps 730 mmHg 60%
    05:00 +8°C° 0 mm 1 mps 730 mmHg 61%
    06:00 +9°C° 0 mm 1 mps 730 mmHg 57%
    07:00 +10°C° 0 mm 0 mps 730 mmHg 52%
    08:00 +12°C° 0 mm 0 mps 730 mmHg 48%
    09:00 +15°C° 0 mm 1 mps 730 mmHg 43%
    10:00 +18°C° 0 mm 1 mps 730 mmHg 37%
    11:00 +21°C° 0 mm 1 mps 730 mmHg 32%
    12:00 +22°C° 0 mm 1 mps 730 mmHg 30%
    13:00 +23°C° 0 mm 1 mps 729 mmHg 28%
    14:00 +24°C° 0 mm 1 mps 728 mmHg 27%
    15:00 +24°C° 0 mm 1 mps 728 mmHg 29%
    16:00 +23°C° 0 mm 1 mps 727 mmHg 31%
    17:00 +23°C° 0 mm 1 mps 727 mmHg 33%
    18:00 +20°C° 0 mm 1 mps 727 mmHg 38%
    19:00 +18°C° 0 mm 1 mps 726 mmHg 43%
    20:00 +14°C° 0 mm 1 mps 726 mmHg 49%
    21:00 +14°C° 0 mm 1 mps 726 mmHg 49%
    22:00 +13°C° 0 mm 1 mps 726 mmHg 50%
    23:00 +13°C° 0 mm 1 mps 726 mmHg 50%

    Tomorrow, 23 September, Monday

    Time Temperature Precipitation Wind Pressure Humidity
    00:00 +13°C° 0 mm 1 mps 726 mmHg 50%
    01:00 +13°C° 0 mm 1 mps 726 mmHg 49%
    02:00 +13°C° 0 mm 1 mps 726 mmHg 48%
    03:00 +13°C° 0 mm 1 mps 725 mmHg 47%
    04:00 +14°C° 0 mm 1 mps 725 mmHg 46%
    05:00 +14°C° 0 mm 1 mps 725 mmHg 45%
    06:00 +15°C° 0 mm 1 mps 725 mmHg 46%
    07:00 +15°C° 0 mm 1 mps 725 mmHg 47%
    08:00 +16°C° 0 mm 1 mps 725 mmHg 48%
    09:00 +16°C° 0 mm 1 mps 725 mmHg 52%
    10:00 +15°C° 0 mm 0 mps 725 mmHg 55%
    11:00 +15°C° 0 mm 0 mps 725 mmHg 59%
    12:00 +15°C° 0.3 mm 0 mps 725 mmHg 65%
    13:00 +14°C° 0.3 mm 0 mps 725 mmHg 71%
    14:00 +14°C° 0.3 mm 0 mps 724 mmHg 76%
    15:00 +14°C° 0.1 mm 0 mps 724 mmHg 79%
    16:00 +14°C° 0.1 mm 0 mps 724 mmHg 81%
    17:00 +13°C° 0.1 mm 0 mps 724 mmHg 84%
    18:00 +13°C° 0.1 mm 0 mps 724 mmHg 85%
    19:00 +13°C° 0.1 mm 0 mps 724 mmHg 86%
    20:00 +13°C° 0.1 mm 0 mps 724 mmHg 88%
    21:00 +13°C° 0 mm 0 mps 724 mmHg 88%
    22:00 +13°C° 0 mm 0 mps 724 mmHg 88%
    23:00 +13°C° 0 mm 0 mps 724 mmHg 89%

    Day after tomorrow, 24 September, Tuesday

    Time Temperature Precipitation Wind Pressure Humidity
    00:00 +13°C° 0 mm 0 mps 724 mmHg 90%
    01:00 +12°C° 0 mm 0 mps 724 mmHg 90%
    02:00 +12°C° 0 mm 0 mps 723 mmHg 91%
    03:00 +12°C° 0.1 mm 0 mps 723 mmHg 91%
    04:00 +12°C° 0.1 mm 0 mps 723 mmHg 91%
    05:00 +13°C° 0.1 mm 1 mps 723 mmHg 92%
    06:00 +14°C° 0 mm 1 mps 723 mmHg 89%
    07:00 +14°C° 0 mm 1 mps 723 mmHg 87%
    08:00 +15°C° 0 mm 1 mps 723 mmHg 85%
    09:00 +16°C° 0 mm 1 mps 723 mmHg 79%
    10:00 +18°C° 0 mm 1 mps 723 mmHg 74%
    11:00 +19°C° 0 mm 2 mps 723 mmHg 68%
    12:00 +20°C° 0 mm 1 mps 723 mmHg 69%
    13:00 +19°C° 0 mm 1 mps 723 mmHg 69%
    14:00 +19°C° 0 mm 1 mps 723 mmHg 69%
    15:00 +19°C° 0 mm 1 mps 723 mmHg 72%
    16:00 +18°C° 0 mm 1 mps 723 mmHg 75%
    17:00 +18°C° 0 mm 1 mps 723 mmHg 78%
    18:00 +16°C° 0 mm 1 mps 723 mmHg 80%
    19:00 +16°C° 0 mm 1 mps 723 mmHg 83%
    20:00 +14°C° 0 mm 0 mps 723 mmHg 85%
    21:00 +14°C° 0 mm 0 mps 723 mmHg 85%
    22:00 +14°C° 0 mm 0 mps 723 mmHg 86%
    23:00 +14°C° 0 mm 1 mps 723 mmHg 86%

    25 September, Wednesday

    Time Temperature Precipitation Wind Pressure Humidity
    00:00 +13°C° 0 mm 0 mps 723 mmHg 87%
    01:00 +13°C° 0 mm 0 mps 723 mmHg 87%
    02:00 +13°C° 0 mm 0 mps 723 mmHg 88%
    03:00 +13°C° 0 mm 0 mps 722 mmHg 89%
    04:00 +13°C° 0 mm 0 mps 722 mmHg 90%
    05:00 +13°C° 0 mm 0 mps 722 mmHg 91%
    06:00 +13°C° 0 mm 0 mps 722 mmHg 89%
    07:00 +13°C° 0 mm 0 mps 722 mmHg 87%
    08:00 +14°C° 0 mm 0 mps 722 mmHg 85%
    09:00 +15°C° 0.1 mm 0 mps 722 mmHg 83%
    10:00 +15°C° 0.1 mm 0 mps 722 mmHg 81%
    11:00 +18°C° 0.1 mm 1 mps 723 mmHg 79%
    12:00 +18°C° 0.1 mm 1 mps 722 mmHg 79%
    13:00 +18°C° 0.1 mm 1 mps 722 mmHg 79%
    14:00 +18°C° 0.1 mm 1 mps 722 mmHg 79%
    15:00 +18°C° 0.1 mm 1 mps 722 mmHg 79%
    16:00 +18°C° 0.1 mm 1 mps 722 mmHg 80%
    17:00 +16°C° 0.1 mm 0 mps 722 mmHg 81%
    18:00 +15°C° 0.1 mm 0 mps 722 mmHg 84%
    19:00 +14°C° 0.1 mm 0 mps 722 mmHg 87%
    20:00 +14°C° 0.1 mm 0 mps 722 mmHg 90%
    21:00 +13°C° 0.2 mm 0 mps 722 mmHg 91%
    22:00 +14°C° 0.2 mm 1 mps 722 mmHg 91%
    23:00 +14°C° 0.2 mm 1 mps 722 mmHg 92%

    26 September, Thursday

    Time Temperature Precipitation Wind Pressure Humidity
    00:00 +13°C° 0.2 mm 0 mps 722 mmHg 92%
    01:00 +13°C° 0.2 mm 0 mps 721 mmHg 93%
    02:00 +13°C° 0.2 mm 0 mps 721 mmHg 93%
    03:00 +13°C° 0.4 mm 0 mps 721 mmHg 93%
    04:00 +13°C° 0.4 mm 0 mps 721 mmHg 93%
    05:00 +13°C° 0.4 mm 0 mps 721 mmHg 93%
    06:00 +13°C° 0.3 mm 0 mps 721 mmHg 93%
    07:00 +13°C° 0.3 mm 0 mps 722 mmHg 92%
    08:00 +14°C° 0.3 mm 0 mps 722 mmHg 91%
    09:00 +14°C° 1.5 mm 0 mps 722 mmHg 93%
    10:00 +14°C° 1.5 mm 0 mps 722 mmHg 94%
    11:00 +15°C° 1.5 mm 1 mps 722 mmHg 95%
    12:00 +15°C° 0.8 mm 1 mps 722 mmHg 95%
    13:00 +15°C° 0.8 mm 1 mps 722 mmHg 94%
    14:00 +15°C° 0.8 mm 2 mps 722 mmHg 94%
    15:00 +15°C° 0.3 mm 2 mps 722 mmHg 92%
    16:00 +14°C° 0.3 mm 3 mps 722 mmHg 91%
    17:00 +14°C° 0.3 mm 3 mps 723 mmHg 89%
    18:00 +14°C° 0.1 mm 3 mps 723 mmHg 91%
    19:00 +14°C° 0.1 mm 2 mps 723 mmHg 92%
    20:00 +13°C° 0.1 mm 2 mps 723 mmHg 93%
    21:00 +13°C° 0 mm 2 mps 723 mmHg 93%
    22:00 +13°C° 0 mm 2 mps 724 mmHg 93%
    23:00 +12°C° 0 mm 2 mps 724 mmHg 92%

    27 September, Friday

    Time Temperature Precipitation Wind Pressure Humidity
    00:00 +12°C° 0 mm 2 mps 724 mmHg 92%
    01:00 +12°C° 0 mm 2 mps 724 mmHg 92%
    02:00 +12°C° 0 mm 1 mps 724 mmHg 92%
    03:00 +12°C° 0 mm 1 mps 725 mmHg 92%
    04:00 +11°C° 0 mm 1 mps 725 mmHg 92%
    05:00 +11°C° 0 mm 1 mps 725 mmHg 92%
    06:00 +12°C° 0 mm 1 mps 725 mmHg 90%
    07:00 +13°C° 0 mm 1 mps 725 mmHg 88%
    08:00 +13°C° 0 mm 1 mps 726 mmHg 86%
    09:00 +15°C° 0 mm 1 mps 726 mmHg 77%
    10:00 +18°C° 0 mm 1 mps 726 mmHg 69%
    11:00 +19°C° 0 mm 2 mps 727 mmHg 60%
    12:00 +20°C° 0 mm 2 mps 727 mmHg 56%
    13:00 +21°C° 0 mm 2 mps 727 mmHg 52%
    14:00 +21°C° 0 mm 3 mps 726 mmHg 48%
    15:00 +21°C° 0 mm 2 mps 726 mmHg 51%
    16:00 +20°C° 0 mm 2 mps 726 mmHg 53%
    17:00 +20°C° 0 mm 2 mps 726 mmHg 56%
    18:00 +19°C° 0 mm 1 mps 726 mmHg 62%
    19:00 +16°C° 0 mm 1 mps 726 mmHg 68%
    20:00 +14°C° 0 mm 1 mps 726 mmHg 74%
    21:00 +14°C° 0 mm 1 mps 726 mmHg 75%
    22:00 +14°C° 0 mm 1 mps 727 mmHg 75%
    23:00 +13°C° 0 mm 1 mps 727 mmHg 75%
    Show more